Location: Unspecified
(44.0704°N, 0.0000°E)
Time: 03:01:35
(UTC+00:00)

ISS - Visible Passes

Search period start: 26 June 2019 00:00
Search period end: 06 July 2019 00:00
Orbit: 407 x 419 km, 51.6° (Epoch: 26 June)

Date Brightness Start Highest point End Pass type
(mag) Time Alt. Az. Time Alt. Az. Time Alt. Az.
30 Jun -1.4 03:00:53 10° SSE 03:02:43 14° SE 03:04:33 10° E visible
02 Jul -2.7 02:58:03 18° SSW 02:59:58 34° SE 03:03:00 10° ENE visible
03 Jul -2.1 02:10:18 20° SE 02:10:32 20° SE 02:13:04 10° E visible
03 Jul -3.4 03:43:40 10° WSW 03:46:57 59° NNW 03:50:14 10° NE visible
04 Jul -1.0 01:22:30 10° ESE 01:22:30 10° ESE 01:22:30 10° ESE visible
04 Jul -3.9 02:55:18 21° SW 02:57:21 86° SE 03:00:40 10° ENE visible
05 Jul -3.5 02:07:27 47° SSE 02:07:48 50° SE 02:11:01 10° ENE visible
05 Jul -2.3 03:41:31 10° W 03:44:34 33° NNW 03:47:36 10° NE visible
